Flag for Guatemala Weather past 2 weeks in Guatemala, Guatemala

Now
66 °F

Partly sunny.


Feels Like: 66 °F
Forecast: 62 / 73 °F
Wind: 5 mph from North

Location: Guatemala Aeropuertola Aurora

Current Time: Sep 4, 2015 at 8:34:16 AM

Latest Report: Sep 4, 2015 at 8:00 AM


Visibility: N/A

Pressure: 30.21 "Hg (25.25 "Hg at 1533m altitude)

Humidity: 83%

Dew point: 61 °F

Location of GuatemalaLocation

Historic Weather in Guatemala — Graph

°F

Guatemala temperature yesterday

Maximum temperature yesterday: 79 °F (at 12:00 PM)
Minimum temperature yesterday: 61 °F (at 4:00 AM)
Average temperature yesterday: 66 °F

Past Weeks' High & Low Weather Summary

 TemperatureHumidityPressure
High82 °F (Aug 21, 3:00 PM)100% (Aug 31, 4:00 AM)30.36 "Hg (Aug 31, 4:00 AM)
Low59 °F (Aug 24, 6:00 AM)30% (Aug 22, 4:00 PM)30.15 "Hg (Aug 28, 4:00 PM)
Average69 °F76%30.27 "Hg
* Reported Aug 20 7:00 AM — Sep 4 7:00 AM, Guatemala, Weather by CustomWeather, © 2015

Note: Actual official high and low records may vary slightly from our data, if they occured in-between our weather recording intervals... More about our weather records

Advertising

Guatemala weather history for previous 24 hours

 ConditionsComfort  
Time TempWeatherWind HumidityBarometerVisibility
7:00 AM
Fri, Sep 4
63 °FScattered clouds.7 mph94%30.24 "HgN/A
6:00 AM61 °FBroken clouds.2 mph94%30.24 "HgN/A
5:00 AM61 °FPassing clouds.3 mph100%30.24 "HgN/A
4:00 AM61 °FPassing clouds.5 mph100%30.24 "HgN/A
3:00 AM63 °FPassing clouds.2 mph88%30.24 "HgN/A
2:00 AM63 °FOvercast.2 mph94%30.24 "HgN/A
1:02 AMN/APartly cloudy.2 mphN/AN/AN/A
12:00 AM63 °FPartly cloudy.7 mph94%30.27 "HgN/A
11:00 PM
Thu, Sep 3
64 °FPassing clouds.2 mph88%30.27 "HgN/A
10:00 PM64 °FDrizzle. Overcast.2 mph88%30.30 "Hg4 mi
9:00 PM64 °FOvercast.No wind94%30.27 "HgN/A
8:00 PM64 °FPassing clouds.7 mph94%30.24 "Hg5 mi
7:00 PM64 °FPartly cloudy.7 mph100%30.21 "Hg5 mi
6:00 PM64 °FDrizzle. Partly sunny.No wind94%30.21 "HgN/A
5:00 PM64 °FDrizzle. Partly sunny.7 mph94%30.18 "HgN/A
4:00 PM64 °FThunderstorms. Broken clouds.7 mph94%30.21 "Hg4 mi
3:01 PM70 °FThunderstorms. Broken clouds.7 mph78%30.21 "Hg3 mi
2:00 PM70 °FDrizzle. Broken clouds.12 mph78%30.21 "HgN/A
1:00 PM77 °FPartly sunny.9 mph54%30.24 "HgN/A
12:00 PM79 °FBroken clouds.9 mph54%30.27 "HgN/A
11:00 AM75 °FPartly sunny.9 mph57%30.27 "HgN/A
10:00 AM73 °FPartly sunny.9 mph61%30.30 "HgN/A
9:00 AM70 °FSunny.12 mph64%30.30 "Hg10 mi
8:00 AM68 °FSunny.5 mph73%30.27 "Hg10 mi
Weather by CustomWeather, © 2015

See weather overviewHow to use our weather pages